Погода в Герхмахах

Россия / Республика Дагестан     42°15′51″N   47°31′48″E
темп.,
°C
ветер,
м/с
пор.,
м/с
влажн.,
%
обл.,
%
осадки,
мм/ч
давл.,
гПа
погр.,
м
29 ноября, пн
пн2900:00+5зюз2258100 0.0 101412
03:00+5зюз226089 0.0 101413
06:00+4зюз2261100 0.0 101511
09:00+8зюз11520 0.0 101663
12:00+11св11457 0.0 1014428
15:00+10ссв115391 0.0 101433
18:00+7зюз22560 0.0 101510
21:00+6зюз33545 0.0 101624
30 ноября, вт
вт3000:00+7зюз4328100 0.0 101423
03:00+8зюз43261 0.0 101222
06:00+9зюз4429100 0.0 100927
09:00+12юз6939100 0.0 1008117
12:00+17зюз71327100 0.0 1004532
15:00+16юз4831100 0.0 1004174
18:00+13юз713364 0.0 1005337
21:00+9ю454789 0.0 100345
1 декабря, ср
ср100:00+13юз101833100 0.0 998641
03:00+12зюз162633100 0.0 9951285
06:00+11зюз152635100 0.0 9951359
09:00+11юз819360 0.0 9971952
12:00+12зюз414330 0.0 9981989
15:00+4в459198 0.3 1005555
18:00+1в3499100 6.6 1007170
21:00−2всв3399100 14.7 1012199
2 декабря, чт
чт200:00−3всв2299100 2.1 1014157
03:00−4св1197100 3.8 1016162
06:00−5юв129899 0.5 101839
09:00−4ю229148 0.7 1021163
12:00−2ю228120 0.0 1020359
15:00−2ююв11875 0.0 102141
18:00−7юз32834 0.0 102616
21:00−7юз33750 0.0 102718
3 декабря, пт
пт300:00−7зюз43660 0.0 102619
03:00−6зюз43610 0.0 102516
06:00−5юз43570 0.0 102515
09:000юз32634 0.0 102221
12:00+3ююз22946 0.0 101931
15:00+2юз22825 0.0 101912
18:00−1зюз336444 0.0 102213
21:00−2зюз335846 0.0 102213